Weather History for Kirksville, MO

Change the Weather History Date:

Thursday, May 2, 2013

  Actual Average Record
Temperature  
Mean Temperature 40 °F 57 °F  
Max Temperature 45 °F 68 °F 86 °F (1959)
Min Temperature 34 °F 47 °F 32 °F (1961)
Degree Days  
Heating Degree Days 25 8  
Month to date heating degree days 26 17  
Since 1 July heating degree days 5872 5707  
Cooling Degree Days 0 1  
Month to date cooling degree days 0 1  
Year to date cooling degree days 10 8  
Moisture  
Dew Point 36 °F    
Average Humidity 88    
Maximum Humidity 100    
Minimum Humidity 76    
Precipitation  
Precipitation 0.31 in 0.19 in 1.20 in (1935)
Month to date precipitation 0.31 0.38  
Year to date precipitation 16.28 9.57  
Sea Level Pressure  
Sea Level Pressure 30.27 in    
Wind  
Wind Speed 15 mph (North)    
Max Wind Speed 23 mph    
Max Gust Speed 30 mph    
Visibility 7 miles    
Events Rain , Snow , Thunderstorm    
T = Trace of Precipitation, MM = Missing Value Source: NWS Daily Summary

Daily Weather History Graph

Daily Weather History Graph

Search for Another Location

Airport:

Trip Planner

Search our weather history database for the weather conditions in past years. The results will help you decide how hot, cold, wet, or windy it might be!

Date:

Astronomy

May. 02, 2013 Rise Set
Actual Time 6:08 AM CDT 8:06 PM CDT
Civil Twilight 5:39 AM CDT 8:35 PM CDT
Nautical Twilight 5:03 AM CDT 9:12 PM CDT
Astronomical Twilight 4:24 AM CDT 9:51 PM CDT
Moon 1:56 AM CDT (5/2) 12:56 PM CDT (5/2)
Length of Visible Light 14h 56m
Length of Day
13h 57m
Waning Gibbous, 47% of the Moon is Illuminated
May 2
Waning Gibbous
May 9
New
May 17
First Quarter
May 24
Full
May 31
Last Quarter

Hourly Weather History & Observations

Time (CDT) Temp. Windchill Dew Point Humidity Pressure Visibility Wind Dir Wind Speed Gust Speed Precip Events Conditions
12:55 AM 45.0 °F 37.9 °F 39.0 °F 80% 30.16 in 10.0 mi North 16.1 mph 23.0 mph N/A   Mostly Cloudy
1:55 AM 44.1 °F 37.1 °F 37.9 °F 79% 30.18 in 10.0 mi North 15.0 mph 23.0 mph N/A   Overcast
2:43 AM 42.8 °F 34.8 °F 39.2 °F 87% 30.18 in 3.0 mi North 17.3 mph 24.2 mph 0.02 in Rain , Thunderstorm Heavy Thunderstorms and Rain
2:50 AM 42.8 °F 35.8 °F 39.2 °F 87% 30.18 in 2.0 mi North 13.8 mph 24.2 mph 0.14 in Rain , Thunderstorm Thunderstorms and Rain
2:55 AM 42.1 °F 34.9 °F 39.0 °F 89% 30.19 in 2.5 mi North 13.8 mph 20.7 mph 0.20 in Rain Heavy Rain
3:55 AM 42.1 °F 35.7 °F 39.0 °F 89% 30.20 in 10.0 mi North 11.5 mph 23.0 mph 0.02 in   Mostly Cloudy
4:55 AM 41.0 °F 33.9 °F 37.9 °F 89% 30.20 in 10.0 mi North 12.7 mph 25.3 mph N/A   Mostly Cloudy
5:10 AM 41.0 °F 33.1 °F 37.4 °F 87% 30.21 in 10.0 mi North 15.0 mph 21.9 mph N/A   Mostly Cloudy
5:55 AM 41.0 °F 33.5 °F 37.9 °F 89% 30.25 in 9.0 mi North 13.8 mph 20.7 mph N/A   Overcast
6:55 AM 39.9 °F 30.8 °F 37.0 °F 89% 30.27 in 9.0 mi North 18.4 mph 27.6 mph N/A   Overcast
7:55 AM 39.9 °F 32.1 °F 37.0 °F 89% 30.30 in 10.0 mi North 13.8 mph 28.8 mph N/A   Overcast
8:34 AM 39.2 °F 30.8 °F 37.4 °F 93% 30.27 in 9.0 mi North 15.0 mph 20.7 mph N/A   Overcast
8:55 AM 39.9 °F 32.1 °F 37.0 °F 89% 30.30 in 9.0 mi North 13.8 mph 26.5 mph N/A   Overcast
9:55 AM 41.0 °F 33.1 °F 37.9 °F 89% 30.29 in 10.0 mi North 15.0 mph 23.0 mph N/A   Overcast
10:55 AM 42.1 °F 33.6 °F 37.9 °F 85% 30.31 in 10.0 mi North 18.4 mph 25.3 mph N/A   Overcast
11:08 AM 41.0 °F 33.5 °F 37.4 °F 87% 30.29 in 7.0 mi NNW 13.8 mph 24.2 mph N/A   Overcast
11:55 AM 41.0 °F 33.1 °F 37.9 °F 89% 30.33 in 5.0 mi North 15.0 mph 23.0 mph N/A   Overcast
12:55 PM 39.9 °F 32.1 °F 37.0 °F 89% 30.33 in 3.0 mi North 13.8 mph 25.3 mph N/A   Overcast
1:43 PM 39.2 °F 30.2 °F 37.4 °F 93% 30.30 in 9.0 mi North 17.3 mph 26.5 mph N/A   Overcast
1:55 PM 39.0 °F 29.6 °F 36.0 °F 89% 30.33 in 6.0 mi NNW 18.4 mph 25.3 mph N/A   Overcast
2:12 PM 37.4 °F 27.8 °F 35.6 °F 93% 30.30 in 5.0 mi North 17.3 mph - N/A   Overcast
2:55 PM 37.9 °F 28.2 °F 36.0 °F 93% 30.32 in 8.0 mi North 18.4 mph 25.3 mph 0.00 in Rain Light Rain
3:55 PM 37.9 °F 29.6 °F 36.0 °F 93% 30.31 in 10.0 mi North 13.8 mph 20.7 mph 0.02 in Rain Light Rain
4:37 PM 37.4 °F 28.2 °F 35.6 °F 93% 30.27 in 10.0 mi North 16.1 mph 21.9 mph 0.00 in Rain Light Rain
4:55 PM 37.0 °F 27.0 °F 35.1 °F 93% 30.30 in 10.0 mi North 18.4 mph 25.3 mph 0.00 in   Overcast
5:55 PM 36.0 °F 27.5 °F 34.0 °F 93% 30.31 in 10.0 mi North 12.7 mph 24.2 mph 0.00 in   Overcast
6:40 PM 35.6 °F 25.5 °F 33.8 °F 93% 30.28 in 2.5 mi NNW 17.3 mph 27.6 mph 0.00 in   Overcast
6:55 PM 35.1 °F 23.8 °F 33.1 °F 92% 30.31 in 2.5 mi North 20.7 mph 27.6 mph 0.00 in   Overcast
7:18 PM 35.6 °F 26.2 °F 33.8 °F 93% 30.28 in 1.8 mi North 15.0 mph 25.3 mph 0.01 in Snow Light Snow
7:30 PM 35.6 °F 25.9 °F 33.8 °F 93% 30.28 in 2.5 mi North 16.1 mph 25.3 mph 0.01 in   Overcast
7:38 PM 35.6 °F 25.5 °F 33.8 °F 93% 30.28 in 3.0 mi NNW 17.3 mph 25.3 mph 0.02 in Rain Light Rain
7:55 PM 35.1 °F 25.2 °F 33.1 °F 92% 30.30 in 5.0 mi North 16.1 mph 23.0 mph 0.02 in   Overcast
8:18 PM 33.8 °F 23.5 °F 33.8 °F 100% 30.27 in 4.0 mi North 16.1 mph 25.3 mph 0.01 in Rain Light Rain
8:52 PM 33.8 °F 23.9 °F 33.8 °F 100% 30.27 in 6.0 mi North 15.0 mph 21.9 mph 0.02 in   Overcast
8:55 PM 34.0 °F 23.8 °F 33.1 °F 96% 30.31 in 6.0 mi North 16.1 mph 21.9 mph 0.02 in   Overcast
9:11 PM 33.8 °F 23.5 °F 33.8 °F 100% 30.27 in 9.0 mi North 16.1 mph 24.2 mph 0.00 in   Overcast
9:55 PM 34.0 °F 25.0 °F 33.1 °F 96% 30.30 in 10.0 mi North 12.7 mph 21.9 mph 0.00 in Rain Light Rain
10:55 PM 34.0 °F 24.6 °F 33.1 °F 96% 30.28 in 5.0 mi North 13.8 mph 25.3 mph 0.00 in   Overcast
11:12 PM 33.8 °F 23.9 °F 33.8 °F 100% 30.23 in 2.5 mi North 15.0 mph 23.0 mph 0.01 in Snow Light Snow
11:27 PM 33.8 °F 24.3 °F 33.8 °F 100% 30.23 in 3.0 mi North 13.8 mph 21.9 mph 0.01 in Snow Light Snow
11:55 PM 34.0 °F 24.6 °F 33.1 °F 96% 30.26 in 7.0 mi NNW 13.8 mph 21.9 mph 0.02 in   Overcast